Showing default

GSAT 6, 40880

Orbit data source: Space-Track

GSAT 6, 40880 is a payload satellite owned by ISRO (IN) in GEO that was launched on Thu, 27 Aug 2015 UTC via a GSLV MK II launch vehicle from the Sirharikota (SRI). Payload-class satellites include a variety of spacecraft equipped with specific instruments for various scientific and technological missions. These include communications satellites like Starlink; space stations such as the ISS; scientific satellites like the Hubble; Earth observation satellites from companies like Planet Labs, Umbra, and HawkEye 360; GPS; miniature CubeSats for education and research; and military/defense satellites.

Not visible in the next 10 days
Identifier
40880, 2015-041A
Orbit
GEO
Country
Flag of ININ / IND
Related business
Manufacturer
ISRO SAC/Banga
Mission
Operational Defense Communications
Bus & Motor
I2K, ISRO LAM
Mass
2,217 kg wet, 985 kg dry
Launch date (UTC)
2015-08-27 (10 years ago)
Launch vehicle
GSLV MK II
Launch site
Sirharikota (SRI)
Object type
Payload
Rocket body
Debris
Shape & HBR
Box + 2 Pan, 4.8 m
Radar Cross Section
13.236 m², Large (>1 m²)

Expand to show TLE details & history
Last TLE update: 8 hours ago

TLE from 8 hours ago
0 GSAT 6
1 40880U 15041A   25311.12068248 -.00000154  00000-0  00000+0 0  9994
2 40880   1.3425  85.4805 0002887 138.6079 308.4739  1.00273553 37376
Epoch: 2025-11-07T02:53Z
TLE epoch observation values (Epoch: 2025-11-07T02:53:46.966Z)
Latitude
1.31852°
Longitude
82.48843°
Altitude
35,777.831 km
Speed
3.075 km/s
True Right ascension
11h 30m 00s
True Declination
1° 19' 02"
Sunlit
Object was in daylight at epoch
Visualization orbit readout
Latitude
Unknown
Longitude
Unknown
Altitude
Unknown
Speed
Unknown
Apparent Right ascension
Unknown
Apparent Declination
Unknown
Sunlit
N/A
Visualization observer readout
Local Sidereal Time
07:23:56
Azimuth
Unknown
Elevation
Unknown
Doppler factor
Unknown
Orbital elements
Apogee altitude
35,799.342 km
Perigee altitude
35,774.996 km
Semi-major axis
42,165.306 km
Eccentricity
0.00029
Inclination
1.3425°
RAAN
85.4805°
Arg. of periapsis
138.6079°
True anomaly
308.44799°
Mean anomaly
308.4739°
Eccentric anomaly
308.46095°
Mean motion
0.25067 °/min
Orbital period
1,436.12 mins
BSTAR
0
Loading maneuver chart data...
Computing Atmospheric mass density...
Loading historical data...
Loading historical data...
Loading historical data...
Loading historical data...
Loading historical data...
Loading historical data...
Loading historical data...
Other satellites on launch #41 in the year 2015 (2015-08-27 UTC)

Documentation

Showing up to 5 results
|